sat.trackr.live / text

‹ back to catalog

STARLINK-2017

NORAD 47351 · 2021-005C

PAYLOAD ACTIVE UNKNOWN

§ Identity

Operator
Country
US
Launch date
2021-01-20
Launch site
AFETR
Launch vehicle
Mass (kg)
RCS (m²)

Purposes: comms

External: N2YO · Heavens-Above · Gunter

§ Orbital elements

Epoch: 2026-09-20T03:30:55.902240Z

Period
93.85 min
Inclination
53.1557°
Eccentricity
0.0003322
Mean motion
15.34342884 rev/d
Perigee alt
460.6 km
Apogee alt
465.1 km
Semi-major
6,841.0 km
B*
1.1107e-3
RAAN
188.3187°
Arg perigee
104.9203°
Mean anomaly
255.2168°
Rev number
31,352

§ Raw data

STARLINK-20171 47351U 21005C   26263.14648035  .00037272  00000+0  11107-2 0  99902 47351  53.1557 188.3187 0003322 104.9203 255.2168 15.34342884313528

JSON: /api/v1/satellites/47351 · /tle

For live sub-satellite position, see the globe view (requires WebGL).

§ Visibility from observer

Set your observer location to see the next 7 days of passes ≥ 10°. The values pass through the URL so the page stays shareable.

No JS? Fill the form by hand. The geolocation button needs JavaScript.